Date String (YYYY-MM-DD hh:mm:ss) UTC,Instrument flags,Ambient pressure (hPa),Sample flow (lpm),Bypass flow (lpm),Sample temperature (°C),Ambient temperature (°C),ASC tube jacket temperature (°C),LED temperature (°C),Box temperature (°C),Sample RH (%),Span deviation,Mass concentration (μg/m³),Mass concentration (μg/m³),Mass concentration (μg/m³)
DateTimeUTC,F1_M11,P_M11,Q1_M11,Q2_M11,T1_M11,T2_M11,T3_M11,T4_M11,T5_M11,U1_M11,ZSPAN_M11,X0_M11,X2_M11,X1_M11
2022-10-07 10:00:00,,0837.4,4.99,0.00,29.2,27.5,00.0,38.0,31.0,21.8,-001.6,0036.99,0021.41,0018.41
2022-10-07 10:01:00,,0837.4,5.01,0.00,29.2,27.5,00.0,38.0,31.0,21.7,-001.4,0037.61,0021.40,0018.42
2022-10-07 10:02:00,,0837.4,4.99,0.00,29.2,27.4,00.0,38.0,31.0,21.7,-001.4,0037.96,0021.40,0018.46
2022-10-07 10:03:00,,0837.4,5.01,0.00,29.2,27.4,00.0,38.0,31.0,21.7,-001.5,0038.09,0021.45,0018.50
2022-10-07 10:04:00,,0837.4,4.99,0.00,29.1,27.4,00.0,38.0,31.0,21.7,-001.6,0038.00,0021.47,0018.52
2022-10-07 10:05:00,,0837.5,5.01,0.00,29.1,27.4,00.0,37.9,31.0,21.7,-001.4,0038.31,0021.55,0018.55
2022-10-07 10:06:00,,0837.4,4.99,0.00,29.1,27.4,00.0,37.9,31.0,21.7,-001.8,0039.41,0021.60,0018.59
2022-10-07 10:07:00,,0837.4,4.99,0.00,29.1,27.4,00.0,37.9,30.9,21.7,-001.5,0040.11,0021.62,0018.61
2022-10-07 10:08:00,,0837.4,5.01,0.00,29.1,27.4,00.0,37.9,30.9,21.8,-001.0,0039.40,0021.52,0018.63
2022-10-07 10:09:00,,0837.5,4.99,0.00,29.1,27.4,00.0,37.9,30.9,21.8,-001.2,0038.18,0021.48,0018.67
2022-10-07 10:10:00,,0837.4,5.00,0.00,29.1,27.4,00.0,37.9,30.9,21.8,-001.6,0037.97,0021.56,0018.73
2022-10-07 10:11:00,,0837.4,5.01,0.00,29.1,27.4,00.0,37.9,30.9,21.9,-002.2,0038.31,0021.63,0018.76
2022-10-07 10:12:00,,0837.4,4.99,0.00,29.1,27.4,00.0,37.9,30.9,21.9,-002.6,0039.15,0021.77,0018.84
2022-10-07 10:13:00,,0837.4,5.00,0.00,29.1,27.4,00.0,37.9,30.9,21.8,-002.6,0038.44,0021.87,0018.89
2022-10-07 10:14:00,,0837.4,5.01,0.00,29.1,27.3,00.0,37.9,30.9,21.9,-002.3,0038.52,0021.88,0018.94
2022-10-07 10:15:00,,0837.4,4.99,0.00,29.1,27.3,00.0,37.9,30.9,21.9,-002.0,0038.65,0021.89,0018.97
2022-10-07 10:16:00,,0837.4,5.01,0.00,29.1,27.3,00.0,37.9,30.9,21.9,-001.8,0038.61,0021.88,0019.01
2022-10-07 10:17:00,,0837.4,5.00,0.00,29.0,27.3,00.0,37.9,30.9,21.9,-001.6,0038.95,0022.01,0019.06
2022-10-07 10:18:00,,0837.4,4.99,0.00,29.0,27.2,00.0,37.9,30.8,21.9,-001.4,0039.45,0022.14,0019.15
2022-10-07 10:19:00,,0837.4,5.01,0.00,29.0,27.2,00.0,37.8,30.8,21.9,-001.7,0039.74,0022.28,0019.23
2022-10-07 10:20:00,,0837.4,5.00,0.00,29.0,27.1,00.0,37.8,30.8,21.8,-001.7,0040.06,0022.47,0019.31
2022-10-07 10:21:00,,0837.5,4.99,0.00,29.0,27.0,00.0,37.8,30.8,21.9,-001.7,0040.76,0022.54,0019.36
2022-10-07 10:22:00,,0837.4,4.99,0.00,29.0,27.0,00.0,37.8,30.7,21.9,-001.1,0041.00,0022.65,0019.42
2022-10-07 10:23:00,,0837.4,5.00,0.00,28.9,26.9,00.0,37.8,30.7,21.9,-000.9,0040.34,0022.69,0019.47
2022-10-07 10:24:00,,0837.4,5.01,0.00,28.9,26.9,00.0,37.8,30.7,21.9,-000.5,0041.14,0022.79,0019.52
2022-10-07 10:25:00,,0837.4,4.99,0.00,28.9,27.0,00.0,37.8,30.7,21.9,-000.6,0041.87,0022.97,0019.54
2022-10-07 10:26:00,,0837.4,5.00,0.00,28.9,27.0,00.0,37.8,30.7,21.9,-000.5,0042.52,0023.08,0019.60
2022-10-07 10:27:00,,0837.5,5.01,0.00,28.9,27.0,00.0,37.7,30.7,22.0,-000.6,0042.48,0023.08,0019.65
2022-10-07 10:28:00,,0837.4,4.99,0.00,28.9,27.1,00.0,37.7,30.7,22.0,-000.6,0041.59,0023.04,0019.68
2022-10-07 10:29:00,,0837.4,5.00,0.00,28.9,27.1,00.0,37.7,30.7,22.0,-000.9,0040.45,0023.02,0019.69
2022-10-07 10:30:00,,0837.4,5.00,0.00,28.9,27.1,00.0,37.7,30.7,22.0,-000.9,0040.35,0022.98,0019.67
2022-10-07 10:31:00,,0837.4,5.00,0.00,28.9,27.1,00.0,37.7,30.7,22.0,-001.0,0039.96,0022.90,0019.62
2022-10-07 10:32:00,,0837.4,5.00,0.00,28.9,27.1,00.0,37.7,30.7,22.1,-000.9,0040.11,0022.82,0019.59
2022-10-07 10:33:00,,0837.4,5.00,0.00,28.8,27.1,00.0,37.7,30.7,22.1,-001.0,0039.74,0022.73,0019.55
2022-10-07 10:34:00,,0837.4,5.00,0.00,28.8,27.1,00.0,37.7,30.7,22.1,-001.0,0039.10,0022.69,0019.53
2022-10-07 10:35:00,,0837.3,5.00,0.00,28.8,27.1,00.0,37.7,30.7,22.1,-001.2,0038.11,0022.58,0019.46
2022-10-07 10:36:00,,0837.4,5.00,0.00,28.8,27.1,00.0,37.7,30.7,22.0,-001.3,0036.86,0022.36,0019.39
2022-10-07 10:37:00,,0837.3,4.99,0.00,28.8,27.1,00.0,37.7,30.7,22.0,-001.3,0036.10,0022.26,0019.30
2022-10-07 10:38:00,,0837.4,5.01,0.00,28.8,27.0,00.0,37.7,30.6,22.0,-001.8,0035.75,0022.18,0019.19
2022-10-07 10:39:00,,0837.4,4.99,0.00,28.8,27.0,00.0,37.6,30.6,22.0,-001.9,0035.45,0022.02,0019.10
2022-10-07 10:40:00,,0837.3,5.00,0.00,28.8,27.0,00.0,37.6,30.6,21.9,-002.2,0035.04,0021.90,0019.01
2022-10-07 10:41:00,,0837.4,5.01,0.00,28.8,27.0,00.0,37.6,30.6,21.9,-002.3,0035.67,0021.76,0018.91
2022-10-07 10:42:00,,0837.4,4.98,0.00,28.8,27.0,00.0,37.6,30.6,21.9,-002.3,0036.14,0021.59,0018.81
2022-10-07 10:43:00,,0837.4,5.00,0.00,28.8,27.0,00.0,37.6,30.6,21.9,-002.6,0035.06,0021.48,0018.71
2022-10-07 10:44:00,,0837.4,5.01,0.00,28.8,27.0,00.0,37.6,30.6,21.9,-002.5,0034.77,0021.38,0018.59
2022-10-07 10:45:00,,0837.4,5.00,0.00,28.8,27.0,00.0,37.6,30.6,22.0,-002.3,0035.25,0021.29,0018.50
2022-10-07 10:46:00,,0837.4,5.00,0.00,28.8,27.0,00.0,37.6,30.6,23.0,-002.2,0036.08,0021.25,0018.43
2022-10-07 10:47:00,,0837.4,5.01,0.00,28.7,27.0,00.0,37.6,30.6,24.3,-002.0,0036.00,0021.16,0018.37
2022-10-07 10:48:00,,0837.4,5.01,0.00,28.7,27.0,00.0,37.6,30.6,22.9,-002.0,0035.38,0021.07,0018.34
2022-10-07 10:49:00,,0837.4,4.98,0.00,28.7,26.9,00.0,37.6,30.5,22.3,-001.9,0035.09,0020.98,0018.29
2022-10-07 10:50:00,,0837.4,5.00,0.00,28.7,26.9,00.0,37.6,30.5,22.2,-001.6,0034.97,0020.97,0018.24
2022-10-07 10:51:00,,0837.3,5.00,0.00,28.7,26.8,00.0,37.5,30.5,22.1,-001.1,0034.53,0020.87,0018.19
2022-10-07 10:52:00,,0837.4,5.00,0.00,28.7,26.8,00.0,37.5,30.5,22.1,-001.0,0033.06,0020.85,0018.13
2022-10-07 10:53:00,,0837.4,4.99,0.00,28.7,26.8,00.0,37.5,30.5,22.1,-001.0,0032.01,0020.76,0018.08
2022-10-07 10:54:00,,0837.4,5.01,0.00,28.7,26.9,00.0,37.5,30.5,22.2,-000.7,0032.20,0020.72,0018.01
2022-10-07 10:55:00,,0837.3,4.99,0.00,28.7,26.9,00.0,37.5,30.5,22.1,-000.7,0031.83,0020.65,0017.93
2022-10-07 10:56:00,,0837.4,5.01,0.00,28.7,26.8,00.0,37.5,30.5,22.0,-001.0,0031.02,0020.54,0017.83
2022-10-07 10:57:00,,0837.4,4.99,0.00,28.7,26.8,00.0,37.5,30.5,22.1,-001.0,0029.61,0020.33,0017.70
2022-10-07 10:58:00,,0837.4,5.01,0.00,28.6,26.8,00.0,37.5,30.5,22.1,-001.1,0030.33,0020.22,0017.57
2022-10-07 10:59:00,,0837.4,5.00,0.00,28.6,26.8,00.0,37.5,30.4,22.1,-001.4,0030.60,0020.00,0017.41
